Simultaneous Nadir Overpasses (SNOs) Predictions

Prediction of SNOs between GOES-17 and NOAA-20 Satellite Orbit:

Table of predicted SNOs for the next 14.0 days since TLE Epoch: 7/27/2024
Index Date Time (GOES-17) GOES-17 Lat,Lon NOAA-20 Lat,Lon Distance(km) Time Diff (sec)
1 07/27/2024 08:10:58 -0.02,-104.70 -0.59,-102.08 298.50 80
2 07/28/2024 20:32:56 0.02,-104.72 -0.57,-107.40 305.15 80
3 07/29/2024 20:16:51 0.02,-104.72 0.45,-102.87 211.10 80
4 07/31/2024 08:38:39 -0.03,-104.71 0.72,-108.14 391.14 80
5 08/01/2024 08:17:14 -0.03,-104.71 -0.31,-103.62 124.90 80
6 08/02/2024 20:39:10 0.04,-104.72 -0.91,-108.92 479.22 80
7 08/03/2024 20:23:06 0.04,-104.72 0.12,-104.39 37.26 80
8 08/06/2024 08:26:08 -0.05,-104.72 0.07,-105.13 47.44 80
9 08/07/2024 08:04:43 -0.04,-104.72 -0.96,-100.60 469.33 80
10 08/08/2024 20:26:40 0.05,-104.74 -0.23,-105.91 133.89 80
11 08/09/2024 20:10:35 0.05,-104.75 0.81,-101.39 383.13 80
